Cloud_Cover
0 0 0 20 29 29 22 14 28 24 23 13 0 0 0 0 0 0 0 0 0 0 6 1 3 27 100 86 5 17 100 90 100 64 49 15 5 5 5 3 0 0 0 0 0
1 0 0 8 17 14 26 36 12 8 23 22 0 0 0 3 0 0 0 0 0 0 0 0 1 5 88 94 36 71 100 95 89 55 31 61 5 5 5 5 5 0 0 0 0
0 0 0 0 9 5 1 19 31 22 25 16 6 0 0 3 0 0 0 0 0 0 0 0 0 5 100 100 89 100 96 17 57 90 7 81 9 15 7 9 5 3 0 0 0
17 10 0 0 0 21 26 18 24 24 9 23 1 0 0 0 0 0 0 0 0 0 0 0 0 4 100 96 82 100 52 100 80 91 80 92 72 73 100 53 25 5 1 0 0
100 100 50 0 0 8 16 23 20 20 25 14 1 0 1 0 0 0 0 0 0 0 0 0 0 34 100 100 31 100 57 42 80 76 88 90 94 97 55 100 100 7 23 6 3
100 100 100 1 0 0 2 24 25 21 19 12 0 34 0 0 0 0 0 0 0 0 0 0 0 6 77 88 93 100 22 8 74 44 97 54 42 82 99 100 100 84 84 84 5
100 100 100 5 0 1 6 8 25 1 0 0 0 0 0 0 0 0 0 0 0 0 0 0 0 0 5 14 8 5 11 10 77 74 63 100 92 96 22 60 100 90 100 100 99
100 100 100 0 0 2 5 14 0 0 0 0 2 0 0 0 0 0 0 0 0 0 0 0 0 0 0 38 7 43 23 97 81 90 86 90 100 59 5 13 76 100 100 100 100
100 63 100 0 3 0 0 0 0 0 0 6 8 0 0 0 0 0 0 0 0 0 0 0 0 0 0 0 68 18 83 100 100 52 68 83 100 100 6 36 15 100 36 52 100
100 100 100 6 0 0 0 10 0 30 21 0 0 0 0 0 0 0 0 0 0 0 0 0 0 0 0 1 71 80 92 100 97 99 67 61 100 100 26 89 79 55 6 4 94
100 100 88 0 0 0 33 0 0 0 0 0 0 0 0 0 0 0 0 0 0 0 0 0 0 0 0 1 99 26 100 92 100 84 99 100 100 100 82 90 100 75 5 5 15
100 100 58 0 0 1 10 0 0 0 0 0 0 0 0 0 0 0 0 0 0 0 0 0 0 0 0 0 58 85 75 84 100 100 100 88 94 100 97 88 99 57 27 5 5
96 100 0 0 7 3 0 0 0 0 0 0 0 0 0 0 0 0 0 0 0 0 0 0 0 0 0 0 0 5 64 96 91 100 100 100 100 100 100 36 99 79 9 15 5
91 13 0 1 9 0 0 0 0 0 0 0 0 0 0 0 4 5 1 0 0 0 0 0 0 0 0 0 0 0 3 100 43 43 96 100 100 99 70 37 27 13 0 5 5
53 26 0 0 0 0 0 0 0 0 0 0 0 3 50 5 11 24 5 0 0 0 0 0 0 0 0 0 0 0 8 6 4 27 97 78 100 100 100 90 47 8 5 4 2
59 5 5 0 0 0 0 0 0 0 2 0 0 0 50 98 99 79 6 2 0 0 0 0 0 0 0 0 0 0 3 3 0 4 54 3 100 100 100 100 75 7 40 11 8
11 0 13 0 0 0 0 0 0 0 0 0 0 3 2 100 100 100 100 42 2 0 0 0 0 0 0 0 0 0 0 0 0 0 1 8 100 100 100 100 97 92 83 13 5
0 31 0 0 0 3 0 0 0 0 0 0 1 52 54 97 100 100 100 96 6 2 0 0 0 0 0 0 0 0 0 0 0 0 0 0 20 91 100 100 100 100 100 40 5
17 0 5 0 0 15 4 0 5 5 0 3 5 73 30 89 100 100 100 95 7 5 0 0 0 0 0 0 0 0 0 0 0 5 5 45 9 5 38 99 76 68 23 66 8
5 5 5 5 5 24 5 5 5 5 2 3 5 5 51 100 100 100 100 100 100 68 4 0 0 0 0 0 0 0 0 0 0 0 3 4 100 94 8 6 39 95 86 76 61
5 5 5 5 11 100 38 37 5 4 3 5 5 5 38 48 100 100 100 100 100 74 5 2 0 0 0 0 0 0 0 0 0 0 0 3 2 97 100 64 76 68 100 90 13
5 5 15 26 63 100 79 99 7 33 5 5 5 78 18 48 100 100 100 97 100 99 18 0 0 0 0 0 0 0 0 0 0 0 0 1 98 6 18 1 4 68 89 98 99
71 31 94 84 99 100 100 100 99 100 100 83 5 5 62 100 52 100 99 100 100 100 100 100 89 32 5 0 0 0 0 0 0 0 5 5 71 98 0 0 0 0 1 100 64
62 99 82 91 100 100 100 100 100 100 91 62 5 5 76 94 88 100 100 100 100 100 100 100 100 100 100 44 0 0 0 0 0 0 0 3 41 28 0 4 5 11 2 69 92
64 82 68 87 100 100 100 100 100 100 90 5 5 5 5 16 61 100 59 100 100 100 100 100 100 100 100 13 0 5 4 0 0 0 0 27 100 100 98 1 99 98 63 14 98
61 100 100 100 100 100 100 100 100 100 100 98 59 86 100 87 20 60 99 100 100 100 100 100 100 87 100 99 26 0 0 0 0 0 0 0 1 10 0 0 0 99 100 100 100
100 100 98 100 100 100 100 100 100 100 100 98 100 100 100 100 95 63 9 41 100 100 100 100 100 100 100 100 92 5 0 4 0 0 0 0 86 0 5 0 0 0 98 100 100